| time (UTC) | temp F | wind direction | speed knots | gust knots | rain 1hr in | rain 24hr in | rain mn in | humidity % | barometer mb |
| 20260504141007 | 65 | 204 | 0.9 | 2.6 | 0.05 | 0.10 | 0.00 | 79 | 1016.1 |
| 20260504130506 | 68 | 146 | 0.0 | 1.7 | 0.00 | 0.12 | 0.05 | 76 | 1016.1 |
| 20260504100506 | 70 | 301 | 4.3 | 7.8 | 0.01 | 0.17 | 0.05 | 70 | 1015.1 |
| 20260504050005 | 67 | 279 | 4.3 | 6.1 | 0.00 | 0.16 | 0.04 | 76 | 1014.8 |
| 20260504045505 | 67 | 290 | 4.3 | 6.1 | 0.00 | 0.16 | 0.04 | 76 | 1014.8 |
| 20260504043506 | 67 | 308 | 4.3 | 8.7 | 0.00 | 0.16 | 0.04 | 77 | 1014.9 |
| 20260504043005 | 67 | 310 | 4.3 | 7.0 | 0.00 | 0.16 | 0.04 | 78 | 1014.9 |
| 20260504042506 | 67 | 280 | 2.6 | 6.1 | 0.00 | 0.16 | 0.04 | 80 | 1015.0 |
| 20260504042006 | 67 | 296 | 2.6 | 4.3 | 0.00 | 0.16 | 0.04 | 82 | 1015.0 |
| 20260504041005 | 67 | 302 | 0.9 | 1.7 | 0.00 | 0.16 | 0.04 | 84 | 1015.2 |
| 20260504035006 | 66 | 331 | 0.0 | 1.7 | 0.00 | 0.16 | 0.04 | 84 | 1015.4 |
| 20260504034506 | 66 | 294 | 0.9 | 1.7 | 0.00 | 0.16 | 0.03 | 84 | 1015.4 |
| 20260504034006 | 66 | 295 | 1.7 | 4.3 | 0.00 | 0.16 | 0.03 | 83 | 1015.4 |
| 20260504032506 | 66 | 290 | 1.7 | 4.3 | 0.02 | 0.16 | 0.03 | 82 | 1015.7 |
| 20260504031505 | 66 | 289 | 2.6 | 4.3 | 0.02 | 0.16 | 0.03 | 82 | 1015.8 |
| 20260504031006 | 66 | 297 | 3.5 | 5.2 | 0.02 | 0.16 | 0.03 | 84 | 1015.9 |
| 20260504025505 | 65 | 270 | 2.6 | 5.2 | 0.02 | 0.16 | 0.03 | 85 | 1016.4 |
| 20260504025006 | 65 | 284 | 2.6 | 7.0 | 0.02 | 0.16 | 0.03 | 86 | 1016.4 |
| 20260504023006 | 66 | 265 | 1.7 | 5.2 | 0.02 | 0.15 | 0.02 | 85 | 1016.8 |
| 20260504022005 | 66 | 282 | 1.7 | 4.3 | 0.01 | 0.14 | 0.01 | 84 | 1016.9 |
| 20260504021505 | 66 | 282 | 1.7 | 5.2 | 0.01 | 0.14 | 0.01 | 83 | 1017.0 |
| 20260504021006 | 67 | 275 | 4.3 | 5.2 | 0.01 | 0.14 | 0.01 | 82 | 1017.1 |
| 20260504020506 | 67 | 292 | 4.3 | 14.8 | 0.01 | 0.14 | 0.01 | 81 | 1017.3 |
| 20260504015505 | 67 | 281 | 4.3 | 10.4 | 0.01 | 0.14 | 0.01 | 79 | 1017.3 |
| 20260504015006 | 67 | 274 | 3.5 | 8.7 | 0.01 | 0.13 | 0.01 | 79 | 1017.4 |
| 20260504013505 | 68 | 284 | 1.7 | 4.3 | 0.00 | 0.13 | 0.00 | 80 | 1017.5 |
| 20260504013006 | 68 | 280 | 0.9 | 2.6 | 0.00 | 0.13 | 0.00 | 78 | 1017.6 |
| 20260504012006 | 69 | 288 | 1.7 | 1.7 | 0.00 | 0.13 | 0.00 | 76 | 1017.8 |
| 20260504011005 | 69 | 302 | 0.9 | 1.7 | 0.00 | 0.13 | 0.00 | 75 | 1017.6 |
| 20260504010506 | 69 | 292 | 1.7 | 1.7 | 0.00 | 0.13 | 0.00 | 75 | 1017.9 |
| 20260504010005 | 69 | 291 | 1.7 | 2.6 | 0.00 | 0.13 | 0.00 | 74 | 1017.9 |
| 20260504004505 | 70 | 288 | 0.9 | 1.7 | 0.00 | 0.13 | 0.00 | 72 | 1017.8 |
| 20260504004006 | 69 | 53 | 0.9 | 1.7 | 0.00 | 0.13 | 0.00 | 72 | 1017.7 |
| 20260504001505 | 70 | 112 | 0.0 | 0.0 | 0.00 | 0.13 | 0.00 | 74 | 1017.8 |
| 20260503235505 | 69 | 160 | 0.0 | 1.7 | 0.00 | 0.13 | 0.00 | 77 | 1018.0 |
| 20260503235005 | 69 | 163 | 0.0 | 0.9 | 0.00 | 0.13 | 0.00 | 75 | 1018.1 |
| 20260503234505 | 69 | 170 | 0.9 | 1.7 | 0.00 | 0.13 | 0.00 | 74 | 1018.2 |
| 20260503233005 | 69 | 282 | 2.6 | 4.3 | 0.00 | 0.13 | 0.00 | 72 | 1018.0 |
| 20260503232006 | 69 | 289 | 3.5 | 7.0 | 0.00 | 0.13 | 0.00 | 72 | 1018.1 |
| 20260503231505 | 69 | 288 | 2.6 | 4.3 | 0.00 | 0.13 | 0.00 | 73 | 1018.1 |
| 20260503231005 | 69 | 285 | 1.7 | 2.6 | 0.00 | 0.13 | 0.00 | 75 | 1018.0 |
| 20260503230505 | 69 | 287 | 1.7 | 4.3 | 0.00 | 0.13 | 0.00 | 76 | 1018.0 |
| 20260503230005 | 69 | 291 | 2.6 | 2.6 | 0.00 | 0.13 | 0.00 | 76 | 1017.9 |
| 20260503225505 | 69 | 283 | 0.9 | 2.6 | 0.00 | 0.13 | 0.00 | 76 | 1017.8 |
| 20260503225005 | 69 | 286 | 0.9 | 1.7 | 0.00 | 0.13 | 0.00 | 75 | 1017.8 |
| 20260503222505 | 68 | 335 | 0.0 | 1.7 | 0.00 | 0.13 | 0.00 | 77 | 1017.4 |
| 20260503222005 | 68 | 320 | 0.9 | 2.6 | 0.00 | 0.13 | 0.00 | 78 | 1017.4 |
| 20260503221505 | 68 | 289 | 1.7 | 4.3 | 0.00 | 0.13 | 0.00 | 77 | 1017.4 |
| 20260503221005 | 68 | 287 | 2.6 | 4.3 | 0.00 | 0.13 | 0.00 | 76 | 1017.3 |
| 20260503220005 | 68 | 308 | 2.6 | 2.6 | 0.00 | 0.13 | 0.00 | 76 | 1017.2 |
| 20260503215005 | 68 | 289 | 2.6 | 5.2 | 0.00 | 0.13 | 0.00 | 77 | 1017.4 |
| 20260503214005 | 68 | 275 | 2.6 | 4.3 | 0.00 | 0.13 | 0.00 | 77 | 1017.1 |
| 20260503211505 | 67 | 297 | 1.7 | 4.3 | 0.00 | 0.13 | 0.00 | 78 | 1017.0 |
| 20260503202505 | 66 | 285 | 2.6 | 4.3 | 0.00 | 0.13 | 0.00 | 82 | 1016.6 |
| 20260503200505 | 66 | 1 | 0.9 | 1.7 | 0.00 | 0.13 | 0.00 | 81 | 1016.3 |
| 20260503195005 | 66 | 288 | 2.6 | 4.3 | 0.00 | 0.13 | 0.00 | 81 | 1016.3 |
| 20260503194504 | 66 | 288 | 1.7 | 2.6 | 0.00 | 0.13 | 0.00 | 82 | 1016.2 |
| 20260503194005 | 66 | 289 | 1.7 | 2.6 | 0.00 | 0.13 | 0.00 | 83 | 1016.2 |
| 20260503193005 | 66 | 296 | 0.0 | 1.7 | 0.00 | 0.13 | 0.00 | 82 | 1016.1 |
| 20260503192505 | 66 | 296 | 0.0 | 2.6 | 0.00 | 0.13 | 0.00 | 82 | 1016.0 |
| 20260503191505 | 66 | 296 | 1.7 | 2.6 | 0.00 | 0.13 | 0.00 | 82 | 1016.1 |
| 20260503191004 | 66 | 299 | 0.9 | 2.6 | 0.00 | 0.13 | 0.00 | 83 | 1016.2 |
| 20260503190505 | 66 | 292 | 1.7 | 2.6 | 0.00 | 0.13 | 0.00 | 83 | 1016.3 |
| 20260503184005 | 66 | 296 | 2.6 | 4.3 | 0.00 | 0.13 | 0.00 | 85 | 1016.2 |
| 20260503183005 | 66 | 293 | 0.9 | 1.7 | 0.00 | 0.13 | 0.00 | 85 | 1016.2 |
| 20260503182006 | 66 | 42 | 0.0 | 1.7 | 0.00 | 0.13 | 0.00 | 85 | 1016.1 |
| 20260503181004 | 66 | 337 | 0.9 | 1.7 | 0.00 | 0.13 | 0.00 | 84 | 1016.1 |
| 20260503180504 | 66 | 27 | 0.0 | 2.6 | 0.00 | 0.13 | 0.00 | 84 | 1016.1 |
| 20260503180005 | 66 | 95 | 0.9 | 2.6 | 0.00 | 0.13 | 0.00 | 84 | 1016.1 |
| 20260503175505 | 66 | 317 | 0.9 | 2.6 | 0.00 | 0.13 | 0.00 | 84 | 1016.1 |
| 20260503175005 | 66 | 336 | 0.9 | 2.6 | 0.00 | 0.13 | 0.00 | 84 | 1016.2 |
| 20260503174504 | 66 | 335 | 1.7 | 2.6 | 0.00 | 0.13 | 0.00 | 84 | 1016.2 |
| 20260503174005 | 66 | 324 | 2.6 | 4.3 | 0.00 | 0.13 | 0.00 | 84 | 1016.2 |
| 20260503172004 | 66 | 324 | 0.9 | 2.6 | 0.00 | 0.13 | 0.00 | 82 | 1016.5 |
| 20260503171504 | 67 | 300 | 0.9 | 1.7 | 0.00 | 0.13 | 0.00 | 82 | 1016.5 |
| 20260503171004 | 67 | 71 | 0.9 | 1.7 | 0.00 | 0.13 | 0.00 | 82 | 1016.5 |
| 20260503170505 | 67 | 156 | 0.9 | 2.6 | 0.00 | 0.13 | 0.00 | 81 | 1016.5 |
| 20260503151007 | 68 | 321 | 1.7 | 4.3 | 0.00 | 0.13 | 0.00 | 78 | 1017.5 |